This is the latest recevied weather packets stored in our database for station/object K7KAZ. If no packets are shown the sender has not sent any weather packets the latest 10 day(s).
| Time | Temp. | Humidity | Pressure | Rain* | Wind** | Luminosity | Snow |
|---|---|---|---|---|---|---|---|
| 1777947516 | 22.78° C | 43% | 1013.4 hPa | 0 mm | - | 0 W/m² | - |
| 1777947213 | 22.78° C | 43% | 1013.5 hPa | 0 mm | - | 0 W/m² | - |
| 1777946909 | 22.78° C | 42% | 1013.7 hPa | 0 mm | - | 0 W/m² | - |
| 1777946604 | 22.78° C | 41% | 1013.5 hPa | 0 mm | - | 2 W/m² | - |
| 1777946301 | 22.78° C | 41% | 1013.4 hPa | 0 mm | - | 2 W/m² | - |
| 1777945999 | 22.78° C | 40% | 1013.4 hPa | 0 mm | - | 5 W/m² | - |
| 1777945696 | 22.78° C | 40% | 1013.5 hPa | 0 mm | - | 9 W/m² | - |
| 1777945393 | 23.33° C | 39% | 1013.5 hPa | 0 mm | - | 12 W/m² | - |
| 1777945089 | 23.33° C | 39% | 1013.3 hPa | 0 mm | - | 15 W/m² | - |
| 1777944786 | 23.33° C | 39% | 1013.3 hPa | 0 mm | - | 17 W/m² | - |
| 1777944484 | 23.33° C | 39% | 1013.2 hPa | 0 mm | - | 23 W/m² | - |
| 1777944176 | 23.33° C | 39% | 1013.4 hPa | 0 mm | - | 28 W/m² | - |
| 1777943872 | 23.33° C | 39% | 1013.3 hPa | 0 mm | - | 28 W/m² | - |
| 1777943569 | 23.33° C | 39% | 1013.4 hPa | 0 mm | - | 31 W/m² | - |
| 1777943265 | 23.33° C | 40% | 1013.4 hPa | 0 mm | - | 35 W/m² | - |
| 1777942961 | 23.33° C | 40% | 1013.4 hPa | 0 mm | - | 45 W/m² | - |
| 1777942658 | 23.33° C | 40% | 1013.5 hPa | 0 mm | - | 49 W/m² | - |
| 1777942355 | 23.89° C | 39% | 1013.5 hPa | 0 mm | - | 57 W/m² | - |
| 1777942052 | 23.89° C | 39% | 1013.4 hPa | 0 mm | - | 72 W/m² | - |
| 1777941748 | 23.89° C | 39% | 1013.6 hPa | 0 mm | - | 86 W/m² | - |
| 1777941445 | 23.89° C | 37% | 1013.4 hPa | 0 mm | - | 91 W/m² | - |
| 1777941143 | 23.89° C | 38% | 1013.5 hPa | 0 mm | - | 100 W/m² | - |
| 1777940839 | 23.89° C | 38% | 1013.9 hPa | 0 mm | - | 114 W/m² | - |
| 1777940537 | 23.89° C | 38% | 1013.6 hPa | 0 mm | - | 130 W/m² | - |
| 1777940234 | 23.89° C | 39% | 1013.7 hPa | 0 mm | - | 128 W/m² | - |
* Rain latest hour (hover to see other rain measurements)
** Current wind speed in m/s (hover to see current wind gust speed)